This is the latest recevied weather packets stored in our database for station/object WX5KDM. If no packets are shown the sender has not sent any weather packets the latest 1 day(s).
| Time | Temp. | Humidity | Pressure | Rain* | Wind** | Luminosity | Snow |
|---|---|---|---|---|---|---|---|
| 1836274772 | 21.11° C | 95% | 1018.8 hPa | 0 mm | 0 m/s | - | - |
| 1836274470 | 21.11° C | 95% | 1018.7 hPa | 0 mm | 0 m/s | - | - |
| 1836274324 | 20.56° C | 95% | 1018.7 hPa | 0 mm | 0 m/s | - | - |
| 1836274169 | 21.11° C | 95% | 1018.7 hPa | 0 mm | 0 m/s | - | - |
| 1836273869 | 21.11° C | 95% | 1018.6 hPa | 0 mm | 0 m/s | - | - |
| 1778054396 | 21.67° C | 86% | 1008.6 hPa | 0 mm | 0.89 m/s, 224° | - | - |
| 1778054094 | 21.67° C | 86% | 1008.8 hPa | 0 mm | 0.89 m/s, 224° | - | - |
| 1778053791 | 21.67° C | 85% | 1008.7 hPa | 0 mm | 1.34 m/s, 251° | - | - |
| 1778053488 | 21.67° C | 85% | 1009 hPa | 0 mm | 1.79 m/s, 163° | - | - |
| 1778053185 | 21.67° C | 85% | 1009.3 hPa | 0 mm | 0.89 m/s, 179° | - | - |
| 1778052883 | 21.67° C | 85% | 1009.2 hPa | 0 mm | 1.34 m/s, 188° | - | - |
| 1778052580 | 21.67° C | 84% | 1009.1 hPa | 0 mm | 1.34 m/s, 171° | - | - |
| 1778052277 | 21.67° C | 85% | 1009.2 hPa | 0 mm | 1.34 m/s, 205° | - | - |
| 1778051975 | 22.22° C | 84% | 1009.1 hPa | 0 mm | 1.79 m/s, 232° | - | - |
| 1778051673 | 21.67° C | 84% | 1008.9 hPa | 0 mm | 1.79 m/s, 232° | - | - |
| 1778051369 | 22.22° C | 84% | 1008.9 hPa | 0 mm | 0.89 m/s, 192° | - | - |
| 1778051066 | 22.22° C | 84% | 1008.9 hPa | 0 mm | 1.34 m/s, 204° | - | - |
| 1778050764 | 22.22° C | 84% | 1008.9 hPa | 0 mm | 2.68 m/s, 182° | - | - |
| 1778050461 | 22.22° C | 83% | 1008.9 hPa | 0 mm | 1.34 m/s, 195° | - | - |
| 1778050157 | 22.22° C | 83% | 1008.9 hPa | 0 mm | 1.34 m/s, 229° | - | - |
| 1778049853 | 22.22° C | 83% | 1008.8 hPa | 0 mm | 0.89 m/s, 245° | - | - |
| 1778049551 | 22.22° C | 83% | 1008.8 hPa | 0 mm | 1.34 m/s, 192° | - | - |
| 1778049248 | 22.22° C | 82% | 1008.9 hPa | 0 mm | 2.68 m/s, 202° | - | - |
| 1778048946 | 22.22° C | 82% | 1009.2 hPa | 0 mm | 0.89 m/s, 258° | - | - |
| 1778048644 | 22.22° C | 82% | 1009.3 hPa | 0 mm | 1.79 m/s, 284° | - | - |
* Rain latest hour (hover to see other rain measurements)
** Current wind speed in m/s (hover to see current wind gust speed)